This is the latest recevied weather packets stored in our database for station/object KC7UNY-13. If no packets are shown the sender has not sent any weather packets the latest 10 day(s).
| Time | Temp. | Humidity | Pressure | Rain* | Wind** | Luminosity | Snow |
|---|---|---|---|---|---|---|---|
| 1777382814 | 13.33° C | 44% | 1016.1 hPa | 0 mm | - | 36 W/m² | - |
| 1777382509 | 13.33° C | 46% | 1016 hPa | 0 mm | - | 25 W/m² | - |
| 1777382205 | 13.33° C | 45% | 1015.9 hPa | 0 mm | - | 19 W/m² | - |
| 1777381902 | 12.78° C | 46% | 1015.7 hPa | 0 mm | - | 17 W/m² | - |
| 1777381601 | 12.78° C | 46% | 1015.5 hPa | 0 mm | - | 15 W/m² | - |
| 1777381297 | 12.78° C | 45% | 1015.5 hPa | 0 mm | - | 12 W/m² | - |
| 1777380994 | 12.78° C | 45% | 1015.3 hPa | 0 mm | - | 9 W/m² | - |
| 1777380691 | 12.78° C | 45% | 1015.5 hPa | 0 mm | - | 7 W/m² | - |
| 1777380387 | 12.78° C | 45% | 1015.3 hPa | 0 mm | - | 4 W/m² | - |
| 1777380084 | 12.78° C | 45% | 1015.2 hPa | 0 mm | - | 3 W/m² | - |
| 1777379779 | 12.78° C | 45% | 1015.2 hPa | 0 mm | - | 1 W/m² | - |
| 1777379475 | 12.78° C | 45% | 1015.2 hPa | 0 mm | - | 1 W/m² | - |
| 1777379170 | 13.33° C | 44% | 1015.1 hPa | 0 mm | - | 0 W/m² | - |
| 1777378866 | 13.33° C | 45% | 1015.3 hPa | 0 mm | - | 0 W/m² | - |
| 1777378562 | 13.33° C | 45% | 1015 hPa | 0 mm | - | 0 W/m² | - |
| 1777378258 | 12.78° C | 47% | 1015 hPa | 0 mm | - | 0 W/m² | - |
| 1777377956 | 12.78° C | 47% | 1015 hPa | 0 mm | - | 0 W/m² | - |
| 1777377656 | 13.33° C | 47% | 1015 hPa | 0 mm | - | 0 W/m² | - |
| 1777377352 | 12.78° C | 49% | 1014.7 hPa | 0 mm | - | 0 W/m² | - |
| 1777377049 | 12.78° C | 50% | 1014.7 hPa | 0 mm | - | 0 W/m² | - |
| 1777376746 | 12.78° C | 48% | 1014.7 hPa | 0 mm | - | 0 W/m² | - |
| 1777376443 | 12.78° C | 50% | 1014.6 hPa | 0 mm | - | 0 W/m² | - |
| 1777376139 | 12.78° C | 49% | 1014.7 hPa | 0 mm | - | 0 W/m² | - |
| 1777375838 | 13.33° C | 48% | 1014.7 hPa | 0 mm | - | 0 W/m² | - |
| 1777375533 | 13.33° C | 47% | 1014.6 hPa | 0 mm | - | 0 W/m² | - |
* Rain latest hour (hover to see other rain measurements)
** Current wind speed in m/s (hover to see current wind gust speed)